Location: Unspecified
(50.7693°N, 0.0000°E)
Time: 13:05:02
(UTC+00:00)

SR - Pass Details

Date: 27 June 2019
Orbit: 580 x 876 km, 66.7° (Epoch: 17 July)

Event Time Altitude Azimuth Distance (km) Brightness Sun altitude
Rises 09:17:28 0° 324° (NW) 2,957 ? 47.9°
Reaches altitude 10° 09:19:56 10° 336° (NNW) 2,088 ? 48.3°
Maximum altitude 09:24:06 29° 38° (NE) 1,263 ? 48.9°
Drops below altitude 10° 09:28:33 10° 98° (E) 2,248 ? 49.5°
Sets 09:31:18 0° 109° (ESE) 3,224 ? 49.9°
